Weather History for Trinity Center, CA

Change the Weather History Date:

Monday, November 26, 2012

  Actual Average (KMHS) Record (KMHS)
Temperature  
Mean Temperature 44 °F 38 °F  
Max Temperature 55 °F 47 °F 68 °F (1915)
Min Temperature 33 °F 28 °F 12 °F (1993)
Degree Days  
Heating Degree Days 21 27  
Month to date heating degree days 621  
Since 1 July heating degree days 1285  
Cooling Degree Days 0 0  
Month to date cooling degree days 0  
Year to date cooling degree days 288  
Moisture  
Dew Point 38 °F    
Average Humidity 92    
Maximum Humidity 100    
Minimum Humidity 63    
Precipitation  
Precipitation 0.00 in 0.20 in 1.60 in (1926)
Month to date precipitation 4.26  
Year to date precipitation 34.54  
Sea Level Pressure  
Sea Level Pressure 30.12 in    
Wind  
Wind Speed 2 mph ()    
Max Wind Speed 5 mph    
Max Gust Speed -    
Visibility 7.2 miles    
Events      
T = Trace of Precipitation, MM = Missing Value Source: Averaged Metar Reports

Daily Weather History Graph

Daily Weather History Graph

Search for Another Location

Airport:

Trip Planner

Search our weather history database for the weather conditions in past years. The results will help you decide how hot, cold, wet, or windy it might be!

Date:

Astronomy

Nov. 26, 2012 Rise Set
Actual Time 7:11 AM PST 4:44 PM PST
Civil Twilight 6:41 AM PST 5:15 PM PST
Nautical Twilight 6:07 AM PST 5:48 PM PST
Astronomical Twilight 5:34 AM PST 6:21 PM PST
Moon 3:40 PM PST (11/26) 5:26 AM PST (11/26)
Length of Visible Light 10h 33m
Length of Day
9h 33m
Waxing Gibbous, 97% of the Moon is Illuminated
Nov 26
Waxing Gibbous
Nov 28
Full
Dec 6
Last Quarter
Dec 13
New
Dec 19
First Quarter

Hourly Weather History & Observations

Time (PST) Temp. Windchill Dew Point Humidity Pressure Visibility Wind Dir Wind Speed Gust Speed Precip Events Conditions
12:10 AM 35.6 °F 31.7 °F 35.6 °F 100% 30.10 in 4.0 mi WNW 4.6 mph - N/A   Overcast
12:30 AM 35.6 °F 31.7 °F 35.6 °F 100% 30.10 in 2.0 mi West 4.6 mph - N/A   Overcast
12:50 AM 35.6 °F 32.8 °F 35.6 °F 100% 30.10 in 10.0 mi West 3.5 mph - N/A   Mostly Cloudy
1:10 AM 35.6 °F 32.8 °F 35.6 °F 100% 30.09 in 10.0 mi West 3.5 mph - N/A   Overcast
1:30 AM 35.6 °F 32.8 °F 33.8 °F 93% 30.10 in 10.0 mi West 3.5 mph - N/A   Mostly Cloudy
1:50 AM 33.8 °F 30.8 °F 32.0 °F 93% 30.10 in 8.0 mi West 3.5 mph - N/A   Scattered Clouds
2:10 AM 33.8 °F 29.6 °F 33.8 °F 100% 30.10 in 10.0 mi West 4.6 mph - N/A   Mostly Cloudy
2:30 AM 33.8 °F 30.8 °F 32.0 °F 93% 30.10 in 10.0 mi West 3.5 mph - N/A   Overcast
2:50 AM 35.6 °F 31.7 °F 33.8 °F 93% 30.10 in 10.0 mi WNW 4.6 mph - N/A   Overcast
3:10 AM 35.6 °F - 35.6 °F 100% 30.10 in 10.0 mi Calm Calm - N/A   Overcast
3:30 AM 35.6 °F 32.8 °F 35.6 °F 100% 30.10 in 10.0 mi WNW 3.5 mph - N/A   Overcast
3:50 AM 35.6 °F 31.7 °F 35.6 °F 100% 30.10 in 10.0 mi West 4.6 mph - N/A   Overcast
4:10 AM 35.6 °F - 35.6 °F 100% 30.10 in 7.0 mi Calm Calm - N/A   Overcast
4:30 AM 35.6 °F 32.8 °F 35.6 °F 100% 30.10 in 0.5 mi West 3.5 mph - N/A   Overcast
4:50 AM 35.6 °F 32.8 °F 35.6 °F 100% 30.11 in 5.0 mi West 3.5 mph - N/A   Overcast
5:10 AM 35.6 °F 32.8 °F 35.6 °F 100% 30.12 in 10.0 mi West 3.5 mph - N/A   Overcast
5:30 AM 35.6 °F 32.8 °F 35.6 °F 100% 30.12 in 5.0 mi West 3.5 mph - N/A   Overcast
5:50 AM 35.6 °F 31.7 °F 35.6 °F 100% 30.12 in 3.0 mi West 4.6 mph - N/A   Overcast
6:10 AM 35.6 °F 32.8 °F 35.6 °F 100% 30.12 in 1.5 mi West 3.5 mph - N/A   Overcast
6:30 AM 35.6 °F 31.7 °F 35.6 °F 100% 30.12 in 1.0 mi WNW 4.6 mph - N/A   Overcast
6:50 AM 35.6 °F - 35.6 °F 100% 30.13 in 0.8 mi Calm Calm - N/A   Overcast
7:10 AM 35.6 °F 32.8 °F 35.6 °F 100% 30.14 in 0.5 mi WNW 3.5 mph - N/A   Overcast
7:30 AM 35.6 °F - 35.6 °F 100% 30.14 in 0.5 mi Calm Calm - N/A   Overcast
7:50 AM 35.6 °F - 35.6 °F 100% 30.14 in 1.8 mi Calm Calm - N/A   Overcast
8:10 AM 35.6 °F - 35.6 °F 100% 30.15 in 0.8 mi Calm Calm - N/A   Overcast
8:30 AM 35.6 °F - 35.6 °F 100% 30.15 in 0.2 mi Calm Calm - N/A   Overcast
8:50 AM 35.6 °F - 35.6 °F 100% 30.16 in 0.2 mi Calm Calm - N/A   Overcast
9:10 AM 37.4 °F - 35.6 °F 93% 30.16 in 0.2 mi Calm Calm - N/A   Overcast
9:30 AM 37.4 °F - 37.4 °F 100% 30.16 in 0.8 mi Calm Calm - N/A   Overcast
9:50 AM 37.4 °F - 37.4 °F 100% 30.17 in 0.2 mi Calm Calm - N/A   Overcast
10:10 AM 37.4 °F - 37.4 °F 100% 30.16 in 3.0 mi Calm Calm - N/A   Overcast
10:30 AM 39.2 °F - 37.4 °F 93% 30.16 in 7.0 mi Calm Calm - N/A   Overcast
10:50 AM 41.0 °F 39.0 °F 39.2 °F 93% 30.15 in 10.0 mi SSE 3.5 mph - N/A   Mostly Cloudy
11:10 AM 41.0 °F 39.0 °F 39.2 °F 93% 30.14 in 10.0 mi SE 3.5 mph - N/A   Partly Cloudy
11:30 AM 42.8 °F - 39.2 °F 87% 30.14 in 10.0 mi Calm Calm - N/A   Clear
11:50 AM 44.6 °F - 39.2 °F 81% 30.13 in 10.0 mi Calm Calm - N/A   Clear
12:10 PM 46.4 °F - 39.2 °F 76% 30.12 in 10.0 mi Calm Calm - N/A   Clear
12:30 PM 48.2 °F - 41.0 °F 76% 30.11 in 10.0 mi Calm Calm - N/A   Clear
12:50 PM 50.0 °F - 41.0 °F 71% 30.10 in 10.0 mi Calm Calm - N/A   Clear
1:10 PM 51.8 °F - 41.0 °F 67% 30.09 in 10.0 mi Calm Calm - N/A   Clear
1:30 PM 51.8 °F - 41.0 °F 67% 30.09 in 10.0 mi Calm Calm - N/A   Clear
1:50 PM 53.6 °F - 44.6 °F 72% 30.08 in 10.0 mi Calm Calm - N/A   Clear
2:10 PM 53.6 °F - 44.6 °F 72% 30.08 in 10.0 mi Calm Calm - N/A   Clear
2:30 PM 55.4 °F - 42.8 °F 63% 30.08 in 10.0 mi Calm Calm - N/A   Clear
2:50 PM 55.4 °F - 42.8 °F 63% 30.08 in 10.0 mi Calm Calm - N/A   Clear
3:10 PM 55.4 °F - 44.6 °F 67% 30.07 in 10.0 mi Calm Calm - N/A   Clear
3:30 PM 55.4 °F - 44.6 °F 67% 30.08 in 10.0 mi Calm Calm - N/A   Clear
3:50 PM 50.0 °F - 46.4 °F 87% 30.08 in 10.0 mi Calm Calm - N/A   Clear
4:10 PM 48.2 °F - 46.4 °F 93% 30.08 in 10.0 mi Calm Calm - N/A   Clear
4:30 PM 48.2 °F - 46.4 °F 93% 30.09 in 10.0 mi Calm Calm - N/A   Clear
4:50 PM 46.4 °F - 44.6 °F 93% 30.09 in 10.0 mi Calm Calm - N/A   Clear
5:30 PM 44.6 °F 43.1 °F 42.8 °F 93% 30.11 in 10.0 mi West 3.5 mph - N/A   Clear
5:50 PM 44.6 °F 43.1 °F 41.0 °F 87% 30.11 in 10.0 mi West 3.5 mph - N/A   Clear
6:10 PM 42.8 °F - 41.0 °F 93% 30.11 in 10.0 mi Calm Calm - N/A   Clear
6:30 PM 41.0 °F - 41.0 °F 100% 30.12 in 10.0 mi Calm Calm - N/A   Clear
6:50 PM 41.0 °F 39.0 °F 39.2 °F 93% 30.12 in 10.0 mi WNW 3.5 mph - N/A   Clear
7:10 PM 39.2 °F - 39.2 °F 100% 30.12 in 9.0 mi Calm Calm - N/A   Clear
7:30 PM 39.2 °F 37.0 °F 37.4 °F 93% 30.13 in 9.0 mi West 3.5 mph - N/A   Clear
7:50 PM 39.2 °F - 37.4 °F 93% 30.14 in 9.0 mi Calm Calm - N/A   Clear
8:10 PM 37.4 °F 34.9 °F 37.4 °F 100% 30.14 in 7.0 mi West 3.5 mph - N/A   Clear
8:30 PM 37.4 °F - 37.4 °F 100% 30.15 in 9.0 mi Calm Calm - N/A   Clear
8:50 PM 37.4 °F - 37.4 °F 100% 30.16 in 6.0 mi Calm Calm - N/A   Clear
9:10 PM 37.4 °F - 35.6 °F 93% 30.16 in 9.0 mi Calm Calm - N/A   Clear
9:30 PM 35.6 °F - 35.6 °F 100% 30.16 in 7.0 mi Calm Calm - N/A   Clear
9:50 PM 35.6 °F 32.8 °F 35.6 °F 100% 30.17 in 10.0 mi West 3.5 mph - N/A   Clear
10:30 PM 35.6 °F 32.8 °F 35.6 °F 100% 30.17 in 9.0 mi WNW 3.5 mph - N/A   Clear
10:50 PM 35.6 °F - 35.6 °F 100% 30.17 in 3.0 mi Calm Calm - N/A   Clear
11:10 PM 35.6 °F 32.8 °F 33.8 °F 93% 30.17 in 10.0 mi West 3.5 mph - N/A   Clear
11:30 PM 35.6 °F 32.8 °F 33.8 °F 93% 30.18 in 6.0 mi West 3.5 mph - N/A   Clear
11:50 PM 33.8 °F - 33.8 °F 100% 30.18 in 5.0 mi Calm Calm - N/A   Clear